Location: Falconara Alta
(43.6167°N, 13.4000°E)
Time: 23:58:56
(UTC+00:00)

STARLINK-1233 - Pass Details

Date: 09 April 2020
Orbit: 548 x 551 km, 53.0° (Epoch: 02 June)

Event Time Altitude Azimuth Distance (km) Brightness Sun altitude
Rises 18:17:10 0° 306° (NW) 2,729 8.9 -6.8°
Reaches altitude 10° 18:19:27 10° 311° (NW) 1,833 7.6 -7.2°
Maximum altitude 18:23:32 52° 29° (NNE) 693 4.1 -7.9°
Enters shadow 18:27:24 11° 105° (ESE) 1,751 5.5 -8.5°
